Location: Fort Worth, Tx
(32.7431°N, 97.3695°W)
Time: 18:09:26
(UTC-04:00)

Transit 4A - Pass Details

Date: 06 March 2024
Orbit: 871 x 972 km, 66.8° (Epoch: 21 April)

Event Time Altitude Azimuth Distance (km) Brightness Sun altitude
Rises 11:01:43 0° 316° (NW) 3,463 10.4 36.5°
Reaches altitude 10° 11:04:49 10° 300° (WNW) 2,518 9.8 37.0°
Maximum altitude 11:08:56 20° 255° (WSW) 1,887 9.4 37.7°
Drops below altitude 10° 11:13:03 10° 209° (SSW) 2,517 10.4 38.3°
Sets 11:16:10 0° 193° (SSW) 3,461 11.2 38.8°
